RA67502 UWKS-UWKS

Flight info

Callsign RA67502
Flight time N/A
Altitude 3000
Route UWKS/24 5610N04744E/KOKSHMARI 5607N04743E/PASAD 5552N04727E/CIVILSK 5558N04646E/MORGAUSHI 5602N04718E/KUGESI
Aircraft C172/L-SDGY/S

Departure

Time 2026-04-28 18:11
Airport Cheboksary Airport (UWKS)

Arrival

Time N/A
Airport Cheboksary Airport (UWKS)
Time Latitude Longitude Altitude Speed Heading
2026-04-28 18:10 56.07948 47.39276 1944 ft 96 kts 74°
2026-04-28 18:11 56.08199 47.40406 2010 ft 97 kts 77°
2026-04-28 18:11 56.08440 47.41558 2074 ft 102 kts 77°
2026-04-28 18:11 56.08737 47.42736 2132 ft 106 kts 70°
2026-04-28 18:11 56.09052 47.43957 2210 ft 107 kts 71°
2026-04-28 18:12 56.09364 47.45159 2291 ft 108 kts 71°
2026-04-28 18:12 56.09682 47.46392 2371 ft 108 kts 71°
2026-04-28 18:12 56.10001 47.47620 2445 ft 109 kts 71°
2026-04-28 18:12 56.10316 47.48845 2518 ft 109 kts 71°
2026-04-28 18:13 56.10634 47.50085 2591 ft 109 kts 70°
2026-04-28 18:13 56.10954 47.51354 2664 ft 110 kts 71°
2026-04-28 18:13 56.11272 47.52616 2735 ft 112 kts 70°
2026-04-28 18:13 56.11583 47.53866 2841 ft 111 kts 70°
2026-04-28 18:14 56.11895 47.55132 2946 ft 111 kts 70°
2026-04-28 18:14 56.12029 47.55679 2965 ft 114 kts 71°
2026-04-28 18:14 56.12338 47.56953 2975 ft 123 kts 71°
2026-04-28 18:14 56.12687 47.58392 2975 ft 130 kts 71°
2026-04-28 18:15 56.13053 47.59918 2973 ft 135 kts 71°
2026-04-28 18:15 56.13423 47.61461 2973 ft 131 kts 71°
2026-04-28 18:15 56.13779 47.62925 2968 ft 125 kts 71°
2026-04-28 18:15 56.14125 47.64322 2969 ft 121 kts 71°
2026-04-28 18:16 56.14461 47.65704 2936 ft 120 kts 75°
2026-04-28 18:16 56.14734 47.67116 2890 ft 120 kts 74°
2026-04-28 18:16 56.15073 47.68505 2849 ft 121 kts 72°
2026-04-28 18:16 56.15313 47.69933 2792 ft 114 kts 103°
2026-04-28 18:17 56.15091 47.71130 2776 ft 90 kts 149°
2026-04-28 18:17 56.14654 47.71592 2822 ft 65 kts 185°
2026-04-28 18:17 56.14206 47.71695 2931 ft 61 kts 192°
2026-04-28 18:17 56.13804 47.71693 2981 ft 56 kts 200°
2026-04-28 18:18 56.13545 47.71627 3006 ft 56 kts 202°
2026-04-28 18:18 56.13029 47.71468 3041 ft 56 kts 202°
2026-04-28 18:18 56.12638 47.71334 3035 ft 56 kts 204°
2026-04-28 18:18 56.12375 47.71287 3033 ft 57 kts 197°
2026-04-28 18:19 56.11837 47.71323 2997 ft 58 kts 194°
2026-04-28 18:19 56.11434 47.71377 2981 ft 58 kts 193°
2026-04-28 18:19 56.11031 47.71428 2956 ft 57 kts 193°
2026-04-28 18:19 56.10637 47.71482 2949 ft 55 kts 193°
2026-04-28 18:20 56.10258 47.71545 2951 ft 54 kts 192°
2026-04-28 18:20 56.09883 47.71537 2953 ft 52 kts 203°
2026-04-28 18:20 56.09534 47.71325 2950 ft 53 kts 212°
2026-04-28 18:20 56.09191 47.71028 2955 ft 55 kts 213°
2026-04-28 18:21 56.08842 47.70707 2954 ft 56 kts 214°
2026-04-28 18:21 56.08492 47.70379 2963 ft 57 kts 214°
2026-04-28 18:21 56.08134 47.70033 2967 ft 59 kts 214°
2026-04-28 18:21 56.07780 47.69650 2969 ft 60 kts 219°
2026-04-28 18:22 56.07424 47.69218 2959 ft 61 kts 219°
2026-04-28 18:22 56.07082 47.68780 2964 ft 60 kts 221°
2026-04-28 18:22 56.06744 47.68334 2966 ft 60 kts 221°
2026-04-28 18:22 56.06409 47.67884 2963 ft 59 kts 223°
2026-04-28 18:23 56.06114 47.67379 2971 ft 59 kts 227°
2026-04-28 18:23 56.05831 47.66840 2974 ft 59 kts 227°
2026-04-28 18:23 56.05552 47.66294 2974 ft 59 kts 228°
2026-04-28 18:23 56.05273 47.65744 2977 ft 59 kts 228°
2026-04-28 18:24 56.05088 47.65380 2977 ft 59 kts 228°
2026-04-28 18:24 56.04811 47.64832 2976 ft 60 kts 229°
2026-04-28 18:24 56.04436 47.64094 2977 ft 60 kts 228°
2026-04-28 18:24 56.04154 47.63534 2975 ft 61 kts 228°
2026-04-28 18:25 56.03870 47.62968 2977 ft 61 kts 228°
2026-04-28 18:25 56.03590 47.62401 2977 ft 60 kts 228°
2026-04-28 18:25 56.03312 47.61834 2977 ft 61 kts 228°
2026-04-28 18:26 56.02736 47.60675 2973 ft 62 kts 228°
2026-04-28 18:26 56.02441 47.60095 2975 ft 62 kts 228°
2026-04-28 18:26 56.02144 47.59519 2978 ft 63 kts 228°
2026-04-28 18:26 56.01841 47.58937 2972 ft 63 kts 226°
2026-04-28 18:27 56.01469 47.58512 2971 ft 64 kts 214°
2026-04-28 18:27 56.01069 47.58175 2973 ft 64 kts 213°
2026-04-28 18:27 56.00661 47.57849 2975 ft 64 kts 212°
2026-04-28 18:27 56.00247 47.57521 2967 ft 64 kts 212°
2026-04-28 18:28 55.99843 47.57202 2970 ft 63 kts 212°
2026-04-28 18:28 55.99440 47.56885 2970 ft 63 kts 212°
2026-04-28 18:28 55.99039 47.56567 2971 ft 62 kts 212°
2026-04-28 18:28 55.98640 47.56249 2975 ft 62 kts 212°
2026-04-28 18:29 55.98248 47.55935 2978 ft 61 kts 212°
2026-04-28 18:29 55.97857 47.55624 2974 ft 61 kts 212°
2026-04-28 18:29 55.97465 47.55315 2975 ft 61 kts 212°
2026-04-28 18:29 55.97075 47.54984 2973 ft 60 kts 216°
2026-04-28 18:30 55.96728 47.54571 2974 ft 60 kts 220°
2026-04-28 18:30 55.96614 47.54427 2977 ft 60 kts 219°
2026-04-28 18:30 55.96035 47.53684 2974 ft 61 kts 221°
2026-04-28 18:30 55.95694 47.53251 2976 ft 61 kts 221°
2026-04-28 18:31 55.95345 47.52819 2976 ft 60 kts 220°
2026-04-28 18:31 55.94999 47.52397 2962 ft 59 kts 220°
2026-04-28 18:31 55.94662 47.51984 2980 ft 58 kts 220°
2026-04-28 18:31 55.94324 47.51575 2979 ft 59 kts 220°
2026-04-28 18:32 55.93975 47.51158 2980 ft 59 kts 219°
2026-04-28 18:32 55.93644 47.50749 2929 ft 59 kts 220°
2026-04-28 18:32 55.93303 47.50328 2780 ft 60 kts 220°
2026-04-28 18:32 55.92964 47.49895 2652 ft 60 kts 220°